Temperature
12 12 12 12 11 11 11 11 11 11 11 11 12 12 11 11 11 11 10 10 10 10 10 10 10 10 10 10 11 11 11 11 11 11 11 11 11 11 11 11 11 11 11
12 12 12 11 11 11 11 11 11 12 12 12 11 11 11 10 10 9 9 9 9 9 9 10 10 10 10 10 10 10 10 11 11 11 11 11 11 11 11 11 11 11 11
12 12 11 11 11 11 11 11 12 12 11 11 11 10 10 9 9 9 8 8 9 9 9 9 10 10 10 10 10 10 10 10 10 10 10 10 10 10 10 10 10 11 11
12 11 11 11 11 11 11 11 11 11 11 10 10 9 9 9 9 8 8 8 9 9 9 9 9 9 10 10 10 10 10 10 10 9 9 9 9 9 9 9 9 9 10
11 11 11 11 11 11 11 11 10 10 9 9 9 9 9 9 8 8 8 8 9 9 9 9 9 9 9 9 9 9 9 9 9 8 7 7 7 7 7 7 7 7 8
11 11 11 11 11 10 10 10 9 8 8 8 8 9 9 9 8 8 8 8 8 8 8 8 8 8 8 8 8 8 8 8 7 6 6 5 5 5 5 5 5 5 5
11 11 11 11 10 10 10 9 8 8 7 7 8 8 8 8 8 8 7 7 7 8 8 7 7 7 7 7 7 7 7 6 4 4 3 3 3 3 3 3 3 4 4
11 11 11 10 10 9 9 8 8 7 6 6 6 6 6 7 7 7 7 7 7 7 7 6 6 6 6 6 6 6 5 4 3 2 1 1 1 1 2 2 2 2 3
11 11 10 10 9 9 8 8 7 6 5 5 4 4 3 3 3 4 5 5 5 5 5 5 5 5 5 5 5 5 4 3 1 -0 0 0 0 0 1 1 1 1 2
10 10 10 9 9 8 8 7 6 5 5 4 4 3 3 2 1 1 3 4 4 4 4 4 4 4 4 3 3 2 1 -0 -1 -1 -1 -1 -1 -1 -0 -0 0 0 0
10 9 9 8 8 7 7 6 5 4 4 3 3 3 3 2 1 -1 -1 1 2 3 3 3 3 3 2 1 0 -1 -2 -3 -3 -3 -2 -2 -2 -1 -1 -1 -1 -1 -1
9 9 8 8 7 7 6 5 4 4 3 3 3 2 1 0 -0 -2 -3 -2 -2 0 1 2 2 1 1 -0 -2 -3 -4 -4 -4 -4 -4 -3 -3 -2 -2 -2 -2 -2 -2
9 8 8 7 6 6 5 4 4 3 3 3 2 2 1 0 -1 -1 -2 -3 -3 -2 -2 -2 -2 -2 -2 -3 -4 -4 -5 -5 -5 -5 -5 -4 -4 -4 -4 -3 -3 -3 -3
8 7 7 6 6 5 4 4 3 3 3 2 2 1 1 0 -1 -2 -3 -4 -5 -4 -4 -5 -4 -5 -6 -6 -6 -6 -6 -6 -6 -6 -5 -5 -5 -5 -5 -5 -5 -4 -4
7 7 6 5 5 4 4 3 3 2 2 2 1 1 1 0 -1 -3 -4 -5 -6 -7 -6 -6 -7 -7 -7 -7 -7 -7 -7 -7 -7 -6 -6 -6 -6 -6 -6 -6 -6 -5 -5
6 6 5 5 4 3 3 2 2 2 1 1 1 1 0 -1 -2 -4 -5 -6 -6 -7 -8 -7 -7 -7 -8 -8 -8 -8 -7 -7 -7 -7 -7 -7 -7 -7 -7 -7 -6 -6 -6
6 5 5 4 3 3 2 2 2 1 1 1 0 -0 -1 -2 -4 -5 -6 -7 -7 -7 -8 -8 -8 -8 -8 -8 -8 -8 -8 -8 -8 -8 -8 -8 -8 -7 -7 -7 -7 -7 -6
5 5 4 3 2 2 2 1 1 1 1 0 -1 -1 -2 -4 -5 -6 -7 -7 -7 -8 -8 -8 -8 -8 -8 -8 -8 -8 -8 -8 -9 -9 -9 -8 -8 -8 -8 -8 -7 -7 -7
4 4 3 2 2 1 1 1 1 0 -0 -1 -2 -3 -4 -5 -6 -7 -7 -8 -8 -8 -8 -8 -8 -8 -8 -8 -8 -8 -9 -9 -9 -10 -10 -9 -9 -9 -9 -8 -8 -8 -8
3 3 2 1 1 1 1 0 -0 -1 -1 -2 -3 -4 -5 -6 -7 -8 -8 -8 -8 -8 -8 -8 -8 -8 -8 -8 -9 -9 -10 -10 -10 -10 -10 -10 -10 -10 -9 -9 -9 -9 -9
2 2 1 1 1 0 -0 -1 -1 -2 -3 -4 -5 -6 -7 -7 -8 -8 -8 -8 -8 -8 -8 -8 -8 -8 -9 -9 -10 -10 -10 -10 -10 -10 -10 -10 -10 -10 -10 -10 -10 -10 -10
1 1 0 0 0 -0 -1 -1 -2 -4 -5 -6 -6 -7 -8 -8 -8 -8 -8 -8 -8 -8 -8 -9 -9 -10 -10 -10 -10 -10 -11 -11 -10 -10 -11 -11 -11 -11 -10 -10 -10 -10 -10
0 0 -0 -0 -1 -1 -1 -2 -3 -5 -6 -7 -7 -8 -8 -8 -8 -8 -8 -8 -8 -9 -9 -9 -10 -10 -11 -10 -10 -10 -11 -11 -11 -11 -11 -11 -11 -11 -10 -10 -10 -10 -10
-0 -0 -1 -1 -1 -2 -2 -3 -4 -6 -7 -7 -8 -8 -8 -9 -9 -9 -9 -8 -9 -9 -10 -10 -10 -10 -10 -10 -11 -11 -11 -11 -11 -11 -11 -11 -11 -11 -11 -10 -9 -9 -10
-1 -1 -1 -1 -2 -2 -3 -4 -6 -7 -8 -8 -8 -9 -9 -9 -10 -9 -9 -9 -10 -10 -10 -10 -10 -10 -10 -10 -10 -11 -11 -12 -12 -11 -11 -11 -11 -11 -11 -10 -9 -9 -10
-1 -1 -2 -2 -3 -3 -4 -5 -7 -8 -8 -8 -9 -9 -10 -10 -10 -9 -9 -10 -10 -10 -10 -10 -10 -9 -8 -9 -9 -10 -11 -12 -12 -12 -10 -11 -11 -11 -11 -10 -9 -9 -9
Wind_Speed
4 4 5 8 9 10 8 7 6 7 7 7 9 8 8 9 10 11 12 18 20 21 21 21 20 20 20 19 19 19 18 17 15 14 13 12 11 10 9 10 11 12 15
7 5 5 6 7 9 9 8 6 5 4 4 5 6 7 8 9 11 14 16 20 22 22 22 21 19 19 19 19 19 20 19 17 15 13 12 11 11 11 11 11 11 10
10 8 6 6 6 8 9 8 5 6 5 6 6 5 5 6 8 10 13 15 16 19 22 23 21 20 19 19 19 19 19 18 17 16 14 13 11 10 9 9 10 11 11
12 10 6 6 8 9 7 5 5 5 6 6 5 4 4 3 5 7 10 12 14 14 17 21 20 18 18 18 18 18 17 16 15 14 13 13 13 11 10 10 10 10 10
13 11 7 6 9 7 5 5 6 5 6 7 7 4 3 1 3 5 5 7 10 12 13 17 17 16 17 17 17 18 18 16 15 13 13 14 14 14 13 13 12 12 12
14 13 8 8 9 6 6 5 6 6 4 6 6 6 4 2 1 3 3 3 6 10 12 14 14 13 16 16 17 19 18 16 14 14 15 16 16 16 16 16 15 15 15
14 12 7 6 7 7 6 6 4 6 6 5 5 5 4 2 2 1 1 1 3 8 12 13 13 12 12 16 17 20 18 16 15 16 17 18 18 18 18 18 18 19 19
13 12 8 7 6 6 8 8 6 4 4 5 4 3 5 6 4 4 3 2 4 6 8 13 13 13 15 13 15 19 17 16 16 18 20 20 20 20 21 22 22 22 22
14 13 10 7 6 7 6 6 6 5 4 4 4 4 3 4 5 5 4 3 4 5 6 8 11 15 17 15 15 15 16 16 18 21 22 23 23 23 24 25 25 26 25
12 13 11 9 6 6 6 5 5 3 3 3 3 2 2 3 4 6 5 4 4 7 7 9 9 15 17 15 15 17 17 18 21 24 25 26 27 27 27 27 27 27 27
9 11 11 9 6 5 6 5 4 3 2 1 1 2 2 2 3 4 7 6 6 5 6 9 8 10 14 14 13 14 19 23 25 26 28 28 28 28 28 28 28 28 28
6 7 9 8 7 5 5 4 3 3 1 1 1 1 2 2 3 4 5 10 11 7 10 9 7 6 10 11 13 20 25 26 26 28 29 29 29 29 29 30 30 30 29
4 5 5 5 4 4 4 3 2 2 1 2 2 2 3 3 3 3 5 9 11 7 5 4 5 6 11 11 14 25 26 27 28 30 31 32 32 32 32 32 32 32 32
5 6 6 6 5 5 4 2 2 2 2 3 4 4 4 5 4 4 4 7 12 7 4 6 5 5 6 13 19 26 21 28 31 33 34 34 34 33 33 34 35 35 35
6 6 6 5 4 3 3 2 2 3 4 3 5 5 5 5 5 5 5 5 6 11 13 5 3 4 7 12 18 19 18 28 33 35 34 33 33 34 36 37 38 38 37
7 7 6 5 4 3 3 3 3 4 4 4 4 6 6 5 6 5 5 6 7 11 15 7 10 9 9 13 22 21 20 31 31 31 31 33 35 38 40 40 39 38 36
7 7 5 4 3 3 3 3 4 5 6 7 6 7 8 8 6 6 6 6 8 9 15 16 11 10 10 11 12 14 18 15 16 26 32 36 38 39 38 37 36 35 34
7 6 5 4 4 4 4 4 5 6 7 8 8 8 9 8 8 7 6 8 9 10 12 19 16 13 13 12 12 11 13 13 12 28 34 35 35 35 35 35 34 34 34
7 6 5 4 4 5 5 5 6 7 7 7 8 8 9 9 9 8 9 10 10 11 10 15 18 15 13 12 12 12 13 12 16 22 27 29 31 34 34 34 34 35 35
7 5 4 4 4 5 5 6 6 6 5 6 7 8 9 9 10 10 10 10 9 10 11 13 15 15 13 10 10 14 16 10 13 15 21 24 28 31 32 33 34 34 34
6 4 4 4 5 5 5 7 6 4 4 6 7 8 9 13 15 14 13 11 11 12 14 14 14 14 13 14 15 15 18 18 14 12 14 14 13 13 16 25 29 31 33
5 4 4 5 6 5 11 14 12 4 4 6 8 9 10 11 16 22 25 24 22 18 14 11 12 16 18 17 16 17 18 20 19 8 11 16 13 15 14 12 25 32 33
3 4 4 5 5 8 13 15 16 9 5 7 9 10 11 13 18 13 20 24 18 20 21 16 17 18 19 18 19 21 19 19 20 16 16 19 14 16 15 17 30 32 34
3 3 4 5 6 8 15 16 18 8 7 9 10 11 12 12 14 18 15 12 9 12 17 14 13 15 16 15 16 18 19 19 18 14 12 17 16 17 17 15 27 32 33
3 3 4 6 7 9 15 17 18 7 7 9 10 10 12 11 22 27 17 13 13 13 20 23 24 24 28 28 22 15 14 15 18 16 11 11 16 17 17 16 19 27 28
2 4 5 6 7 8 14 18 18 6 7 8 7 8 15 20 25 26 15 12 14 16 16 16 17 20 18 19 22 13 13 15 16 12 7 7 14 14 11 9 9 11 16
Wind_Direction
105 89 77 70 64 65 66 64 59 49 39 32 32 33 22 18 24 33 38 45 47 43 40 35 32 32 30 30 30 27 23 20 18 20 23 25 22 12 354 330 311 299 287
117 102 86 74 67 68 68 66 59 46 33 25 24 29 25 29 37 44 48 47 44 40 36 31 27 25 23 23 24 24 21 19 18 17 16 18 20 19 16 13 8 355 337
114 103 91 79 68 70 70 62 54 45 32 20 15 23 25 37 48 54 58 55 47 40 35 29 23 21 18 17 15 13 12 10 7 4 2 360 358 355 354 358 2 4 3
110 101 94 83 72 65 59 55 34 32 20 7 351 6 20 34 53 65 69 66 56 48 36 25 19 15 12 9 5 0 357 353 349 345 345 345 342 337 331 327 328 329 331
105 102 94 85 76 63 44 47 41 35 17 354 334 349 11 12 57 70 69 71 56 50 39 21 13 8 3 357 355 350 344 339 334 334 334 329 324 320 314 308 305 305 306
107 101 91 80 74 64 45 37 40 33 20 351 331 331 334 318 7 48 58 63 48 40 31 15 1 352 352 345 343 338 332 327 325 328 325 320 314 309 304 299 296 293 292
105 98 93 80 74 74 60 42 36 24 12 358 354 337 338 341 293 291 6 352 18 27 17 0 345 333 333 331 331 328 322 317 316 317 314 310 308 306 303 298 295 292 289
100 97 94 90 85 83 63 48 44 37 13 18 21 0 348 339 339 344 327 315 10 16 359 340 328 321 317 310 313 321 315 310 311 311 308 305 302 301 300 298 295 291 288
96 99 97 95 83 80 73 60 51 55 19 3 35 49 16 310 306 310 306 327 355 352 329 318 316 314 307 302 302 309 305 305 308 307 305 302 300 298 296 294 293 291 289
96 97 95 90 82 78 74 63 62 56 58 12 345 9 232 235 280 309 297 298 322 320 303 313 306 298 294 293 296 304 299 301 304 304 303 301 297 294 291 289 289 288 287
90 93 91 87 80 77 75 64 58 54 80 98 320 314 313 294 250 270 292 304 308 283 291 287 284 286 287 288 292 291 297 303 301 302 300 297 294 291 290 289 289 288 287
85 85 88 84 81 76 70 62 54 47 39 354 284 259 252 271 278 272 284 307 307 296 288 283 281 282 288 291 298 304 305 301 300 300 298 296 294 293 293 292 290 288 287
101 92 87 81 75 71 69 56 37 8 334 321 295 270 251 245 239 250 283 305 306 297 275 260 268 284 295 307 313 309 305 302 302 300 298 296 295 295 294 292 291 289 287
118 107 93 84 75 64 56 38 4 322 316 303 289 281 266 257 241 244 266 305 315 303 252 266 272 262 297 306 301 304 303 301 300 298 297 295 295 295 294 293 291 289 287
110 98 90 83 66 49 32 10 334 319 313 291 280 275 261 254 244 244 249 262 287 305 309 276 261 278 287 288 294 296 289 294 297 296 295 295 295 294 293 291 289 287 285
98 95 85 75 55 33 10 356 328 316 315 300 281 280 272 257 248 244 245 255 258 277 291 287 295 289 284 296 299 297 292 295 297 296 295 294 293 292 291 289 287 284 282
98 92 84 68 41 18 360 355 331 318 316 307 302 294 283 272 257 249 249 258 261 266 284 295 295 295 289 284 288 283 283 280 281 288 290 290 289 289 288 287 285 283 281
95 90 80 60 28 6 353 344 327 325 314 307 304 302 294 294 271 261 262 264 266 264 277 294 301 303 297 292 289 285 294 288 280 287 290 291 291 290 289 287 285 283 282
91 79 68 46 14 350 337 327 316 311 309 310 310 306 301 298 289 278 270 272 272 279 278 290 297 299 296 297 297 295 288 283 287 292 293 292 290 289 288 287 286 286 285
88 74 58 34 2 338 326 315 309 307 318 320 312 304 302 298 287 280 282 275 284 290 288 289 293 297 300 300 300 304 304 292 291 294 291 288 288 289 288 288 288 287 285
82 70 51 22 360 339 320 313 303 297 307 310 304 297 298 306 311 310 310 309 306 301 300 299 302 308 308 310 309 308 305 304 294 288 288 286 285 280 280 282 283 283 281
70 52 33 9 352 336 323 326 324 292 285 299 301 295 295 298 308 317 313 309 307 307 311 310 310 307 305 306 306 305 305 304 303 297 290 294 289 286 282 275 280 281 281
59 38 14 352 329 319 329 328 322 321 296 294 293 296 307 311 316 302 301 305 307 308 309 306 302 301 302 304 304 304 302 300 299 302 301 296 293 289 287 283 286 284 283
45 20 345 332 327 327 334 327 323 328 297 287 288 291 297 298 301 305 305 309 297 295 300 303 294 295 298 300 300 301 300 299 296 293 290 292 296 292 292 286 286 283 283
27 344 328 334 330 322 329 327 327 306 293 292 293 297 307 304 307 313 318 312 308 309 312 308 305 306 307 307 307 306 306 305 303 303 296 287 294 299 294 287 281 283 284
357 340 335 328 318 310 323 329 328 305 301 303 300 298 315 317 314 320 321 317 316 312 313 315 314 309 303 300 306 305 303 302 303 303 292 283 298 307 302 278 268 276 280
Height
1513 1514 1515 1515 1514 1513 1512 1512 1511 1509 1507 1506 1504 1502 1500 1498 1497 1495 1494 1493 1492 1491 1490 1489 1488 1487 1486 1484 1483 1482 1481 1481 1480 1479 1478 1478 1477 1477 1476 1476 1475 1475 1474
1512 1513 1513 1513 1513 1511 1510 1510 1509 1506 1504 1503 1501 1499 1496 1494 1493 1492 1491 1490 1489 1488 1487 1486 1485 1484 1483 1481 1480 1479 1478 1477 1476 1475 1474 1474 1473 1472 1472 1471 1470 1469 1469
1511 1511 1512 1511 1511 1509 1508 1507 1506 1503 1501 1500 1498 1496 1493 1491 1490 1489 1489 1488 1488 1487 1485 1484 1482 1481 1479 1478 1476 1475 1474 1472 1472 1471 1470 1469 1468 1467 1466 1465 1464 1464 1463
1510 1510 1510 1510 1509 1508 1506 1505 1503 1500 1498 1497 1495 1493 1491 1489 1488 1487 1487 1486 1485 1484 1483 1481 1479 1477 1475 1473 1472 1470 1469 1467 1466 1465 1464 1463 1461 1460 1459 1458 1458 1457 1456
1508 1508 1508 1508 1507 1506 1504 1502 1499 1496 1495 1494 1493 1491 1489 1487 1485 1485 1484 1484 1483 1481 1480 1478 1475 1473 1471 1468 1466 1464 1462 1461 1460 1458 1457 1455 1454 1453 1452 1451 1450 1449 1448
1506 1507 1507 1506 1505 1503 1501 1499 1496 1493 1492 1491 1490 1488 1485 1483 1483 1482 1482 1481 1480 1478 1477 1474 1471 1469 1466 1463 1461 1458 1456 1454 1453 1451 1449 1448 1447 1445 1444 1443 1442 1441 1440
1505 1505 1505 1504 1502 1501 1499 1497 1494 1492 1490 1488 1486 1484 1483 1481 1481 1480 1479 1477 1476 1474 1472 1469 1466 1463 1460 1457 1454 1451 1449 1447 1446 1444 1442 1441 1439 1438 1436 1435 1434 1433 1432
1503 1503 1503 1502 1500 1499 1497 1495 1493 1490 1488 1486 1484 1481 1480 1479 1477 1478 1476 1474 1471 1468 1466 1463 1460 1457 1454 1451 1448 1445 1442 1440 1438 1436 1434 1433 1431 1429 1427 1426 1425 1424 1423
1501 1501 1500 1499 1498 1497 1495 1493 1491 1489 1488 1486 1484 1482 1480 1476 1472 1468 1468 1466 1463 1461 1458 1455 1453 1451 1448 1444 1440 1437 1434 1431 1429 1427 1426 1425 1423 1420 1418 1416 1415 1414 1413
1499 1498 1498 1497 1496 1495 1494 1492 1490 1488 1486 1485 1483 1481 1480 1476 1471 1463 1460 1459 1456 1453 1451 1448 1445 1443 1440 1436 1432 1429 1426 1424 1421 1419 1418 1415 1413 1411 1409 1407 1405 1403 1402
1496 1496 1496 1495 1494 1493 1492 1490 1488 1487 1484 1482 1480 1478 1476 1473 1469 1464 1454 1449 1446 1444 1443 1440 1437 1435 1431 1428 1424 1421 1418 1416 1413 1410 1408 1405 1403 1400 1398 1396 1394 1392 1390
1494 1494 1494 1493 1492 1491 1490 1488 1487 1485 1483 1480 1477 1474 1472 1469 1465 1461 1452 1444 1437 1434 1433 1432 1430 1427 1424 1420 1416 1413 1410 1407 1404 1400 1398 1395 1392 1390 1387 1384 1382 1379 1377
1492 1492 1491 1491 1490 1488 1487 1486 1484 1482 1480 1477 1475 1472 1469 1466 1462 1458 1452 1442 1432 1425 1422 1420 1420 1418 1415 1412 1408 1405 1401 1398 1394 1391 1388 1385 1381 1378 1375 1372 1369 1366 1364
1490 1489 1489 1488 1487 1485 1484 1482 1481 1479 1477 1474 1471 1468 1465 1462 1458 1454 1449 1441 1428 1418 1416 1413 1410 1408 1407 1404 1400 1397 1392 1388 1385 1381 1377 1374 1370 1366 1362 1359 1356 1353 1351
1487 1487 1486 1485 1484 1482 1481 1479 1477 1475 1473 1470 1467 1464 1461 1457 1453 1449 1445 1441 1434 1420 1408 1403 1403 1401 1399 1396 1393 1389 1385 1380 1376 1372 1367 1363 1358 1354 1350 1346 1343 1339 1337
1485 1484 1483 1482 1481 1479 1477 1475 1473 1471 1468 1466 1462 1459 1455 1451 1447 1443 1439 1436 1431 1423 1409 1399 1396 1394 1391 1388 1385 1381 1376 1372 1367 1363 1358 1353 1348 1343 1338 1333 1328 1325 1323
1481 1481 1480 1479 1478 1475 1473 1471 1469 1466 1464 1461 1457 1453 1449 1444 1440 1436 1432 1428 1424 1418 1407 1394 1391 1387 1382 1378 1374 1371 1366 1361 1356 1352 1348 1342 1337 1331 1325 1320 1315 1312 1310
1478 1477 1477 1476 1474 1472 1469 1467 1464 1462 1459 1455 1451 1446 1441 1437 1433 1429 1425 1421 1416 1411 1403 1392 1384 1379 1374 1370 1365 1361 1357 1352 1347 1341 1335 1329 1323 1318 1312 1308 1304 1300 1297
1475 1474 1473 1472 1470 1468 1466 1463 1460 1457 1453 1449 1444 1439 1434 1429 1425 1421 1417 1413 1408 1403 1398 1389 1380 1373 1367 1363 1357 1351 1346 1340 1335 1329 1323 1317 1311 1306 1301 1296 1292 1288 1284
1471 1470 1469 1468 1466 1464 1462 1459 1455 1451 1447 1442 1438 1433 1427 1423 1418 1414 1410 1406 1402 1396 1390 1382 1374 1367 1361 1355 1350 1342 1333 1327 1321 1317 1311 1305 1300 1294 1289 1284 1279 1274 1270
1468 1467 1466 1465 1463 1460 1457 1454 1449 1445 1440 1436 1431 1427 1421 1417 1413 1409 1405 1400 1395 1389 1382 1375 1368 1361 1354 1348 1341 1334 1325 1316 1309 1307 1299 1292 1287 1281 1275 1270 1265 1260 1257
1465 1464 1463 1461 1459 1456 1453 1449 1444 1439 1434 1430 1425 1420 1416 1412 1407 1403 1399 1394 1390 1384 1376 1370 1362 1355 1347 1341 1334 1327 1319 1310 1298 1296 1291 1281 1278 1269 1263 1258 1253 1249 1245
1462 1461 1459 1457 1455 1451 1447 1443 1438 1434 1429 1425 1420 1415 1411 1406 1402 1396 1390 1386 1382 1377 1373 1367 1357 1349 1342 1335 1328 1320 1313 1305 1296 1289 1284 1271 1266 1258 1252 1246 1242 1237 1233
1459 1458 1456 1453 1450 1446 1442 1437 1433 1428 1424 1420 1416 1411 1405 1399 1394 1390 1384 1378 1373 1368 1363 1357 1351 1343 1336 1330 1323 1316 1307 1297 1288 1283 1278 1266 1256 1248 1240 1234 1229 1225 1220
1456 1454 1452 1448 1445 1441 1437 1432 1428 1423 1419 1415 1410 1405 1400 1395 1389 1385 1379 1371 1364 1358 1353 1348 1343 1337 1330 1323 1316 1309 1301 1292 1280 1272 1269 1261 1249 1239 1230 1222 1217 1213 1209
1453 1451 1448 1444 1440 1436 1432 1428 1423 1419 1413 1408 1404 1399 1395 1389 1384 1379 1372 1365 1357 1350 1345 1338 1333 1327 1322 1316 1310 1304 1296 1287 1277 1265 1259 1253 1243 1236 1221 1211 1207 1202 1196